Search your local weather  

 
Advertise Here

Hazardous Weather Conditions

No active alerts for DENVER, COLORADO

Current Conditions: DENVER, COLORADO

Partly Cloudy


75.0 F

Last Updated on Sep 16 2021, 9:45 pm MDT
Humidity: 15%
Wind Speed: NW 6.9 mph
Barometer 30.00 in
Dewpoint: 24.8 F
Visibility: 10.00 mi
Precip: --
Heat Index: NA
Wind Chill: NA
Current conditions at:

Broomfield / Jeffco, CO (KBJC)

Lat: 39.90085 Lon: -105.10417

Local Radar Image active severe weather and emergency alerts image image weather storm and storm spotter reports image weather observation monitoring service image
Local
Radar
Active
Alerts
Storm Reports Weather
Monitoring

5 Day Forecast for DENVER, COLORADO (80202)

Thursday

Mostly Cloudy

High 92 °F
Thursday
Night
Mostly Cloudy

Low 52 °F
Friday

Partly Sunny

High 76 °F
Friday
Night
Mostly Clear

Low 52 °F
Saturday

Mostly Cloudy

High 90 °F
Saturday
Night
Mostly Cloudy

Low 60 °F
Sunday

Partly Sunny

High 88 °F
Sunday
Night
Mostly Clear

Low 56 °F
Monday

Chance of T-storms

High 75 °F

Sign-up For Email & Text Message Weather Alert Notification Services



Advertise Here

Observation History for DENVER, COLORADO


Time Wind
(mph)
Vis
(mi)
Weather Precip (in) Temperature (F) Relative
Humidity
Wind
Chill
(F)
Heat
Index
(F)
Pressure
Air Dwpt altimeter
(in)
sea level
(mb)
9:45 pm MDT NW 6.9 10.00 Partly Cloudy -- 75.0 24.8 15% NA NA 30.00 M
8:45 pm MDT W 9.2 10.00 Partly Cloudy -- 77.0 24.8 14% NA NA 29.98 M
7:45 pm MDT NW 5.8 10.00 Partly Cloudy -- 81.0 26.6 14% NA 79 29.93 M
6:45 pm MDT N 9.2 10.00 Partly Cloudy -- 84.0 28.4 13% NA 81 29.92 M
5:45 pm MDT N 0.0 10.00 Mostly Cloudy -- 86.0 26.6 11% NA 83 29.88 M
3:47 pm MDT N 10.4 10.00 Mostly Cloudy -- 90.0 24.8 9% NA 86 29.88 M
2:57 pm MDT N 6.9 10.00 Partly Cloudy -- 91.0 24.8 9% NA 87 29.89 M
1:45 pm MDT E 9.2 G 13.8 10.00 Partly Cloudy -- 90.0 24.8 9% NA 86 29.91 M
12:45 pm MDT E 5.8 G 11.5 10.00 A Few Clouds -- 90.0 24.8 9% NA 86 29.93 M
11:45 am MDT SE 11.5 10.00 A Few Clouds -- 86.0 21.2 9% NA 83 29.95 M
10:59 am MDT SE 8.1 10.00 Clear -- 84.0 21.2 10% NA 81 29.98 M
9:45 am MDT SE 4.6 10.00 Clear -- 77.0 30.2 18% NA NA 29.99 M
8:45 am MDT S 5.8 10.00 Clear -- 68.0 30.2 24% NA NA 29.99 M
7:45 am MDT S 6.9 10.00 Clear -- 63.0 26.6 25% 63 NA 29.98 M
6:56 am MDT SW 5.8 10.00 Clear -- 68.0 17.6 14% NA NA 29.97 M
5:55 am MDT W 3.5 10.00 Fair -- 64.0 17.6 16% NA NA 29.96 M
4:55 am MDT W 9.2 10.00 Fair -- 61.0 17.6 19% 60 NA 29.95 M
3:55 am MDT SW 3.5 10.00 Fair -- 64.0 19.4 18% NA NA 29.96 M
2:55 am MDT W 13.8 10.00 Fair -- 70.0 19.4 15% NA NA 29.96 M
1:55 am MDT S 3.5 10.00 Fair -- 64.0 23.0 21% NA NA 29.97 M
1:35 am MDT W 12.7 10.00 Fair -- 68.0 21.2 17% NA NA 29.97 M
12:55 am MDT W 11.5 10.00 Fair -- 63.0 24.8 24% 62 NA 29.97 M
12:35 am MDT W 6.9 10.00 Fair -- 68.0 23.0 18% NA NA 29.98 M
11:55 pm MDT W 9.2 10.00 Fair -- 68.0 30.2 24% NA NA 29.98 M

Regional Weather Observation

Erie Municipal Airport, CO (KEIK)

Fair
64.0 F

Boulder Municipal Airport, CO (KBDU)

Fair
68.0 F

Unknown Station (KC99)

Fair
50.0 F

Vance Brand Airport, CO (KLMO)

Fair
67.0 F

Berthoud Pass, CO (K0CO)

Fair and Breezy
43.0 F

Fort Collins/Loveland - Northern Colorado Regional Airport, CO (KFNL)

Fair
74.0 F
Advertise Here


Advertise Here